STARLINK-36988, 67998

Orbit data source: Space-Track

STARLINK-36988, 67998 is a payload satellite owned by SpaceX/Seattle (US) in LEO that was launched on Fri, 27 Feb 2026 UTC via an FALCON 9 launch vehicle from the Air Force Eastern Test Range (AFETR). Payload-class satellites include a variety of spacecraft equipped with specific instruments for various scientific and technological missions. These include communications satellites like Starlink; space stations such as the ISS; scientific satellites like the Hubble; Earth observation satellites from companies like Planet Labs, Umbra, and HawkEye 360; GPS; miniature CubeSats for education and research; and military/defense satellites.

Loading next visibility...
Identifier
67998, 2026-039N
Orbit
LEO
Country
Flag of USUS
Related business
Manufacturer
SpaceX/Seattle
Mission
Operational Commercial Communications
Bus & Motor
STARLINK V2MO, Unknown motor
Mass
575 kg wet, ~530 kg dry
Launch date (UTC)
2026-02-27 (2 months ago)
Launch vehicle
FALCON 9
Launch site
Air Force Eastern Test Range (AFETR)
Object type
Payload
Rocket body
Debris
Shape & HBR
Box + 2 Pan, 17.7 m
Radar Cross Section
36.964 m²

Expand to show TLE details & history
Last TLE update: 8 hours ago

TLE from 8 hours ago
0 STARLINK-36988
1 67998U 26039N   26119.40871620  .00009813  00000-0  36561-3 0  9991
2 67998  43.0020 122.2007 0001606 273.8620  86.2048 15.27582307  9462
Epoch: 2026-04-29T09:48Z
TLE epoch observation values (Epoch: 2026-04-29T09:48:33.079Z)
Latitude
-0.00003°
Longitude
117.69274°
Altitude
482.745 km
Speed
7.626 km/s
True Right ascension
08h 08m 48s
True Declination
0° 00' 00"
Sunlit
Object was in daylight at epoch
Visualization orbit readout
Latitude
Unknown
Longitude
Unknown
Altitude
Unknown
Speed
Unknown
Apparent Right ascension
Unknown
Apparent Declination
Unknown
Sunlit
N/A
Visualization observer readout
Local Sidereal Time
01:14:11
Azimuth
Unknown
Elevation
Unknown
Doppler factor
Unknown
Orbital elements
Apogee altitude
486.089 km
Perigee altitude
483.885 km
Semi-major axis
6,863.124 km
Eccentricity
0.00016
Inclination
43.002°
RAAN
122.2007°
Arg. of periapsis
273.862°
True anomaly
86.22316°
Mean anomaly
86.2048°
Eccentric anomaly
86.21398°
Mean motion
3.81734 °/min
Orbital period
94.31 mins
BSTAR
0.00036561
Loading maneuver chart data...
Computing Atmospheric mass density...
Loading historical data...
Loading historical data...
Loading historical data...
Loading historical data...
Loading historical data...
Loading historical data...
Loading historical data...

Documentation

Showing up to 5 results
|